This is the latest recevied weather packets stored in our database for station/object KB4KY. If no packets are shown the sender has not sent any weather packets the latest 10 day(s).
| Time | Temp. | Humidity | Pressure | Rain* | Wind** | Luminosity | Snow |
|---|---|---|---|---|---|---|---|
| 1777648005 | 13.89° C | 71% | 1013.9 hPa | 0 mm | - | - | - |
| 1777647705 | 14.44° C | 69% | 1014 hPa | 0 mm | - | - | - |
| 1777647404 | 14.44° C | 67% | 1014 hPa | 0 mm | - | - | - |
| 1777647107 | 14.44° C | 66% | 1013.9 hPa | 0 mm | - | - | - |
| 1777646804 | 14.44° C | 67% | 1013.9 hPa | 0 mm | - | - | - |
| 1777646504 | 14.44° C | 64% | 1013.9 hPa | 0 mm | - | - | - |
| 1777646203 | 15° C | 65% | 1013.9 hPa | 0 mm | - | - | - |
| 1777645904 | 15° C | 62% | 1013.8 hPa | 0 mm | - | - | - |
| 1777645606 | 14.44° C | 62% | 1013.8 hPa | 0 mm | - | - | - |
| 1777645302 | 14.44° C | 64% | 1013.8 hPa | 0 mm | - | - | - |
| 1777645004 | 14.44° C | 64% | 1013.7 hPa | 0 mm | - | - | - |
| 1777644705 | 14.44° C | 67% | 1013.8 hPa | 0 mm | - | - | - |
| 1777644405 | 14.44° C | 66% | 1013.8 hPa | 0 mm | - | - | - |
| 1777644103 | 15° C | 63% | 1013.7 hPa | 0 mm | - | - | - |
| 1777643802 | 15.56° C | 63% | 1013.7 hPa | 0 mm | - | - | - |
| 1777643501 | 15.56° C | 63% | 1013.7 hPa | 0 mm | - | - | - |
| 1777643201 | 15.56° C | 66% | 1013.7 hPa | 0 mm | - | - | - |
| 1777642900 | 15.56° C | 65% | 1013.7 hPa | 0 mm | - | - | - |
| 1777642603 | 15.56° C | 68% | 1013.9 hPa | 0 mm | - | - | - |
| 1777642301 | 15° C | 67% | 1013.9 hPa | 0 mm | - | - | - |
| 1777642001 | 15° C | 67% | 1013.9 hPa | 0 mm | - | - | - |
| 1777641699 | 14.44° C | 69% | 1014 hPa | 0 mm | - | - | - |
| 1777641399 | 13.89° C | 68% | 1014.1 hPa | 0 mm | - | - | - |
| 1777641105 | 13.89° C | 69% | 1014 hPa | 0 mm | - | - | - |
| 1777640799 | 13.33° C | 68% | 1014.1 hPa | 0 mm | - | - | - |
* Rain latest hour (hover to see other rain measurements)
** Current wind speed in m/s (hover to see current wind gust speed)